[[{"header":{"parameterUnit":"m.s-1","parameterCategory":1,"la1":30.2991,"la2":30.254,"lo1":-89.0895,"lo2":-89.0444,"dy":0.0017,"dx":0.0017,"nx":28,"ny":28,"refTime":"2024-03-28T21:00:00:Z","depth":0,"parameterNumber":2,"parameterNumberName":"U-component_of_WINDS"},"data":[0,0,0,0,0,0,0,0,0,0,0,0,0,0,0,0,0,0,0,0,0,0,0,0,0,0,0,0,0,0,0,0,0,0,0,0,0,0,0,0,0,0,0,0,0,0,0,0,0,0,0,0,0,0,0,0,0,0,-0.8306,-0.8306,0,-0.8367,-0.8367,-0.8368,-0.835,-0.8349,-0.8347,-0.8346,-0.8411,-0.8414,-0.8417,0,0,0,0,0,0,0,0,0,0,0,0,0,-0.8176,-0.8179,-0.8306,-0.8306,-0.8307,-0.8366,-0.8367,-0.8368,-0.835,-0.8349,-0.8347,-0.8346,-0.841,-0.8413,-0.8417,0,0,0,0,0,0,0,0,0,0,0,0,0,-0.8234,-0.818,-0.8306,-0.8305,-0.8306,-0.8366,-0.8367,-0.8368,-0.835,-0.8349,-0.8347,-0.8345,-0.8409,-0.8413,-0.8417,-0.8482,0,0,-0.8431,-0.8433,0,0,0,0,0,0,0,0,-0.8231,-0.8239,-0.8305,-0.8305,-0.8306,-0.8349,-0.8345,-0.8407,-0.8351,-0.8334,-0.8346,-0.8344,-0.8392,-0.8398,-0.8413,-0.8485,-0.8488,-0.8431,-0.8434,-0.8436,-0.8437,0,0,0,0,0,0,0,-0.8227,-0.8236,-0.833,-0.8306,-0.8307,-0.8303,-0.8309,-0.8357,-0.8373,-0.8335,-0.8334,-0.8341,-0.8392,-0.8409,-0.8415,-0.8489,-0.8431,-0.8435,-0.8438,-0.8439,-0.8618,-0.862,0,0,0,0,0,0,-0.8222,-0.8233,-0.8328,-0.8332,-0.8263,-0.8307,-0.8314,-0.8337,-0.8372,-0.8376,-0.8343,-0.834,-0.8403,-0.841,-0.8417,-0.8496,-0.8436,-0.844,-0.8442,-0.8616,-0.8619,-0.8621,0,0,0,0,0,0,-0.8219,-0.8231,-0.8325,-0.8282,-0.8294,-0.8311,-0.8337,-0.8339,-0.8356,-0.8378,-0.8381,-0.8357,-0.8401,-0.8411,-0.8466,-0.8498,-0.8442,-0.8446,-0.8614,-0.8617,-0.862,-0.8654,0,0,0,0,0,0,-0.8216,-0.823,-0.8254,-0.8283,-0.8296,-0.8373,-0.8339,-0.8342,-0.8363,-0.8361,-0.8392,-0.8396,-0.8401,-0.846,-0.847,-0.8503,-0.8449,-0.8611,-0.8615,-0.8619,-0.865,-0.8658,-0.8665,0,0,0,0,0,-0.8211,-0.8262,-0.8256,-0.8267,-0.8327,-0.8375,-0.8383,-0.8387,-0.8366,-0.8391,-0.8405,-0.8395,-0.8492,-0.8466,-0.8478,-0.8512,-0.8609,-0.8614,-0.8619,-0.8647,-0.8657,-0.8665,0,0,0,0,0,0,-0.8238,-0.8266,-0.8259,-0.832,-0.8345,-0.8372,-0.8404,-0.8397,-0.8429,-0.8425,-0.8429,-0.8436,-0.8493,-0.8508,-0.8477,-0.8577,-0.8548,-0.8555,-0.8565,-0.8574,-0.8582,-0.8578,-0.8453,0,0,0,0,0,-0.8251,-0.8287,-0.8309,-0.8361,-0.8374,-0.8387,-0.8408,-0.8408,-0.8435,-0.8446,-0.8464,-0.8491,-0.8527,-0.8551,-0.8586,-0.8652,-0.8659,-0.8681,-0.8688,-0.8694,-0.8701,-0.8737,-0.8748,-0.8637,-0.8637,-0.8637,0,0,-0.8278,-0.8297,-0.832,-0.8367,-0.8386,-0.8425,-0.8396,-0.8437,-0.8466,-0.8452,-0.8506,-0.852,-0.855,-0.8611,-0.8639,-0.8625,-0.8733,-0.87,-0.8705,-0.8709,-0.8743,-0.8754,-0.8763,-0.864,-0.8639,-0.8639,0,0,-0.8347,-0.8365,-0.8411,-0.843,-0.846,-0.8468,-0.8479,-0.8507,-0.8515,-0.8569,-0.8559,-0.8594,-0.8657,-0.8679,-0.8698,-0.8775,-0.8767,-0.8786,-0.8825,-0.886,-0.8869,-0.8877,-0.8905,-0.8915,-0.8793,-0.8793,-0.8793,0,-0.8378,-0.8434,-0.8435,-0.8477,-0.8499,-0.8487,-0.8534,-0.8553,-0.8593,-0.8608,-0.8592,-0.867,-0.869,-0.8756,-0.8775,-0.8791,-0.8804,-0.8783,-0.8867,-0.8875,-0.8883,-0.891,-0.892,-0.8795,-0.8795,-0.8794,-0.8794,0,-0.847,-0.8509,-0.8542,-0.858,-0.8605,-0.865,-0.8658,-0.8683,-0.8682,-0.8692,-0.8747,-0.8769,-0.8809,-0.8824,-0.8823,-0.8891,-0.8881,-0.8866,-0.8837,-0.8895,-0.8921,-0.8931,-0.8798,-0.8797,-0.8797,-0.8796,0,0,-0.8559,-0.8597,-0.8609,-0.8626,-0.8658,-0.8688,-0.8732,-0.877,-0.8792,-0.8819,-0.8857,-0.891,-0.8896,-0.8918,-0.892,-0.895,-0.9011,-0.8932,-0.8932,-0.8947,-0.9088,-0.91,-0.9112,-0.9005,-0.9007,-0.9009,-0.9085,0,-0.8632,-0.8708,-0.8711,-0.8781,-0.8818,-0.8807,-0.8845,-0.8869,-0.8879,-0.8912,-0.8924,-0.8962,-0.894,-0.8953,-0.8983,-0.8997,-0.904,-0.8992,-0.9041,-0.9043,-0.9035,-0.9125,-0.9138,-0.9209,-0.9095,-0.9097,-0.9098,0,-0.8727,-0.8757,-0.8831,-0.8857,-0.8873,-0.8907,-0.8942,-0.8973,-0.9,-0.9006,-0.903,-0.9027,-0.9072,-0.9041,-0.9104,-0.9071,-0.9092,-0.9101,-0.9104,-0.911,-0.9075,-0.9134,-0.9232,-0.9243,-0.9114,-0.9113,-0.9112,0,-0.8786,-0.8845,-0.8897,-0.8912,-0.8943,-0.8968,-0.8982,-0.9007,-0.903,-0.906,-0.9075,-0.9111,-0.9131,-0.9159,-0.9165,-0.9142,-0.9229,-0.9198,-0.9236,-0.9236,-0.9256,-0.9255,-0.9359,-0.9267,-0.9267,-0.9267,-0.9266,0,-0.8868,-0.8914,-0.8923,-0.8956,-0.9007,-0.9009,-0.906,-0.9073,-0.9095,-0.913,-0.9122,-0.9155,-0.9161,-0.9196,-0.9201,-0.9253,-0.9262,-0.9268,-0.927,-0.927,-0.9269,-0.9284,-0.928,-0.9269,-0.9269,-0.9268,-0.9268,0,-0.8943,-0.8951,-0.9007,-0.9032,-0.9039,-0.9076,-0.9098,-0.9129,-0.9138,-0.9182,-0.9193,-0.9207,-0.9248,-0.9256,-0.9304,-0.9308,-0.937,-0.9366,-0.9361,-0.9361,-0.9399,-0.9396,-0.9518,-0.9534,-0.943,-0.9431,-0.9432,0,-0.8995,-0.903,-0.9059,-0.9081,-0.9097,-0.9133,-0.9156,-0.9159,-0.9183,-0.9217,-0.9244,-0.9283,-0.9315,-0.938,-0.9395,-0.9432,-0.9429,-0.9469,-0.9435,-0.9434,-0.9431,-0.9429,-0.9433,-0.9476,-0.9477,-0.9478,-0.9479,0,-0.9088,-0.909,-0.9123,-0.9157,-0.9185,-0.9212,-0.9238,-0.9257,-0.9264,-0.9292,-0.9332,-0.9357,-0.9405,-0.9445,-0.9481,-0.9497,-0.949,-0.949,-0.95,-0.9502,-0.9498,-0.9502,-0.9381,-0.9487,-0.9486,-0.9486,-0.9485,-0.9485,-0.9154,-0.9185,-0.921,-0.9247,-0.9266,-0.9291,-0.9321,-0.9334,-0.9367,-0.9407,-0.9407,-0.9451,-0.9477,-0.9526,-0.9544,-0.9579,-0.9567,-0.9582,-0.9586,-0.9591,-0.9594,-0.9491,-0.9586,-0.9585,-0.9585,-0.9585,-0.9585,0,-0.9247,-0.9263,-0.9296,-0.9333,-0.9362,-0.9351,-0.9379,-0.9405,-0.9444,-0.9468,-0.9499,-0.9546,-0.9584,-0.9602,-0.964,-0.9665,-0.9663,-0.9675,-0.9674,-0.9678,-0.9603,-0.959,-0.9676,-0.9676,-0.9676,-0.9676,-0.9676,-0.9676,-0.9299,-0.9351,-0.9356,-0.9417,-0.9432,-0.9476,-0.9493,-0.9516,-0.9535,-0.9588,-0.9619,-0.963,-0.9652,-0.9691,-0.9726,-0.973,-0.9745,-0.9759,-0.9762,-0.9692,-0.9683,-0.9674,-0.9662,-0.9762,-0.9762,-0.9834,-0.9834,-0.9835]},{"header":{"parameterUnit":"m.s-1","parameterCategory":1,"la1":30.2991,"la2":30.254,"lo1":-89.0895,"lo2":-89.0444,"dy":0.0017,"dx":0.0017,"nx":28,"ny":28,"refTime":"2024-03-28T21:00:00:Z","depth":0,"parameterNumber":3,"parameterNumberName":"V-component_of_WINDS"},"data":[0,0,0,0,0,0,0,0,0,0,0,0,0,0,0,0,0,0,0,0,0,0,0,0,0,0,0,0,0,0,0,0,0,0,0,0,0,0,0,0,0,0,0,0,0,0,0,0,0,0,0,0,0,0,0,0,0,0,-3.1707,-3.1708,0,-3.1771,-3.1772,-3.1773,-3.1723,-3.1721,-3.1719,-3.1717,-3.1779,-3.1783,-3.1787,0,0,0,0,0,0,0,0,0,0,0,0,0,-3.1538,-3.1541,-3.1707,-3.1708,-3.1708,-3.1771,-3.1772,-3.1773,-3.1723,-3.1721,-3.1718,-3.1716,-3.1778,-3.1783,-3.1787,0,0,0,0,0,0,0,0,0,0,0,0,0,-3.1608,-3.1543,-3.1707,-3.1691,-3.1691,-3.1771,-3.1772,-3.1773,-3.1724,-3.1721,-3.1717,-3.1714,-3.1777,-3.1782,-3.1788,-3.1885,0,0,-3.1804,-3.1807,0,0,0,0,0,0,0,0,-3.1604,-3.1614,-3.1693,-3.1693,-3.1692,-3.1736,-3.1735,-3.1811,-3.1725,-3.1711,-3.1717,-3.1713,-3.1767,-3.1773,-3.1792,-3.1888,-3.1891,-3.1805,-3.1808,-3.181,-3.1812,0,0,0,0,0,0,0,-3.1599,-3.1611,-3.1732,-3.1694,-3.1693,-3.168,-3.1687,-3.1749,-3.1756,-3.1712,-3.1709,-3.1717,-3.1766,-3.1787,-3.1793,-3.1892,-3.1805,-3.181,-3.1813,-3.1815,-3.2071,-3.2075,0,0,0,0,0,0,-3.1596,-3.1607,-3.173,-3.1734,-3.1639,-3.1686,-3.1693,-3.1725,-3.1755,-3.1757,-3.172,-3.1715,-3.1779,-3.1787,-3.1795,-3.1912,-3.181,-3.1816,-3.1819,-3.2068,-3.2072,-3.2076,0,0,0,0,0,0,-3.1593,-3.1608,-3.1727,-3.167,-3.1684,-3.1692,-3.1728,-3.1728,-3.1749,-3.1761,-3.1762,-3.174,-3.1777,-3.1788,-3.1864,-3.1914,-3.1818,-3.1823,-3.2064,-3.2069,-3.2074,-3.2147,0,0,0,0,0,0,-3.1588,-3.1607,-3.1645,-3.1671,-3.1687,-3.1796,-3.1732,-3.1731,-3.1759,-3.1752,-3.178,-3.1782,-3.1775,-3.1856,-3.1869,-3.192,-3.1827,-3.2059,-3.2066,-3.2072,-3.214,-3.2154,-3.2166,0,0,0,0,0,-3.1582,-3.1662,-3.1647,-3.1662,-3.1735,-3.1799,-3.1808,-3.18,-3.1763,-3.1801,-3.1809,-3.1781,-3.1906,-3.1864,-3.1879,-3.1932,-3.2056,-3.2064,-3.2072,-3.2134,-3.2151,-3.2166,0,0,0,0,0,0,-3.164,-3.1665,-3.1649,-3.1739,-3.1768,-3.179,-3.1838,-3.1818,-3.1856,-3.1849,-3.1836,-3.1843,-3.1923,-3.1934,-3.1887,-3.2028,-3.1975,-3.1986,-3.2018,-3.2034,-3.2047,-3.2042,-3.1832,0,0,0,0,0,-3.1663,-3.1714,-3.1733,-3.1811,-3.1826,-3.183,-3.1857,-3.1848,-3.1876,-3.1888,-3.1901,-3.1929,-3.1974,-3.2005,-3.2047,-3.2141,-3.2147,-3.2185,-3.2198,-3.2209,-3.2219,-3.227,-3.2287,-3.2102,-3.2102,-3.2102,0,0,-3.1712,-3.1732,-3.1764,-3.1823,-3.1844,-3.1896,-3.184,-3.1897,-3.1935,-3.1896,-3.1969,-3.198,-3.201,-3.2096,-3.2134,-3.2108,-3.2271,-3.2219,-3.2227,-3.2231,-3.2279,-3.2297,-3.2312,-3.2107,-3.2106,-3.2106,0,0,-3.1827,-3.1847,-3.1915,-3.1937,-3.197,-3.1972,-3.1988,-3.2015,-3.2021,-3.2094,-3.2066,-3.211,-3.2189,-3.2212,-3.2233,-3.2358,-3.2334,-3.2372,-3.244,-3.2489,-3.2504,-3.2517,-3.2562,-3.2578,-3.2381,-3.2382,-3.2382,0,-3.1883,-3.1961,-3.1952,-3.2012,-3.2038,-3.2006,-3.2074,-3.2096,-3.214,-3.2159,-3.2129,-3.2228,-3.2245,-3.2336,-3.2367,-3.2385,-3.2403,-3.2369,-3.2503,-3.2516,-3.2527,-3.257,-3.2587,-3.2386,-3.2386,-3.2385,-3.2385,0,-3.2029,-3.2083,-3.2134,-3.2179,-3.2211,-3.2275,-3.2274,-3.2308,-3.2296,-3.2301,-3.2376,-3.2396,-3.2443,-3.2463,-3.2452,-3.2553,-3.2536,-3.2505,-3.2451,-3.255,-3.2589,-3.2606,-3.2393,-3.2391,-3.239,-3.2389,0,0,-3.2182,-3.2222,-3.2241,-3.2261,-3.2295,-3.2337,-3.2398,-3.2445,-3.2474,-3.2505,-3.2557,-3.2624,-3.2596,-3.2621,-3.2612,-3.2656,-3.2753,-3.2619,-3.262,-3.2644,-3.2866,-3.2889,-3.2908,-3.2737,-3.274,-3.2743,-3.2863,0,-3.2299,-3.2409,-3.2402,-3.2504,-3.2555,-3.2525,-3.2579,-3.2605,-3.2611,-3.2654,-3.266,-3.2709,-3.2668,-3.2682,-3.2724,-3.2733,-3.2798,-3.2724,-3.2785,-3.2787,-3.2779,-3.2929,-3.2954,-3.3067,-3.2879,-3.2881,-3.2883,0,-3.2451,-3.2489,-3.2597,-3.2624,-3.2645,-3.2694,-3.2736,-3.2777,-3.2806,-3.2807,-3.2836,-3.282,-3.2881,-3.2826,-3.2911,-3.2861,-3.2885,-3.2893,-3.2897,-3.2903,-3.2841,-3.2939,-3.3102,-3.312,-3.2907,-3.2905,-3.2904,0,-3.2553,-3.2631,-3.2706,-3.2724,-3.2757,-3.2792,-3.2807,-3.2833,-3.2862,-3.2898,-3.2916,-3.2959,-3.2983,-3.3016,-3.3011,-3.2971,-3.3097,-3.3042,-3.31,-3.31,-3.3128,-3.3126,-3.3298,-3.3143,-3.3143,-3.3142,-3.3142,0,-3.2685,-3.2752,-3.2752,-3.2799,-3.2873,-3.2864,-3.2937,-3.2948,-3.2972,-3.3019,-3.2995,-3.3039,-3.3031,-3.3075,-3.3071,-3.3142,-3.3152,-3.3155,-3.3153,-3.3158,-3.3157,-3.3174,-3.3166,-3.3147,-3.3146,-3.3145,-3.3144,0,-3.2811,-3.2814,-3.2894,-3.2919,-3.2927,-3.2981,-3.3002,-3.3045,-3.3049,-3.3109,-3.3122,-3.3129,-3.318,-3.3178,-3.3236,-3.3233,-3.332,-3.3309,-3.3311,-3.3309,-3.3368,-3.3362,-3.3556,-3.3581,-3.3409,-3.3411,-3.3412,0,-3.2896,-3.2947,-3.2978,-3.3009,-3.3027,-3.3076,-3.3105,-3.3098,-3.3129,-3.3166,-3.3205,-3.3254,-3.3293,-3.3375,-3.3384,-3.3428,-3.3418,-3.3483,-3.3424,-3.3427,-3.3419,-3.3417,-3.3422,-3.3494,-3.3496,-3.3498,-3.3499,0,-3.3045,-3.3045,-3.3088,-3.3133,-3.3169,-3.3204,-3.3236,-3.3262,-3.3258,-3.3294,-3.3347,-3.3377,-3.3436,-3.3485,-3.3527,-3.3541,-3.352,-3.3517,-3.3533,-3.3538,-3.3538,-3.3539,-3.3343,-3.3513,-3.3512,-3.3511,-3.351,-3.3509,-3.3154,-3.3198,-3.3228,-3.3277,-3.3301,-3.3331,-3.3373,-3.3383,-3.3427,-3.3476,-3.3468,-3.3527,-3.3554,-3.3609,-3.3627,-3.3672,-3.3649,-3.3671,-3.3677,-3.3683,-3.369,-3.353,-3.3679,-3.3679,-3.3678,-3.3678,-3.3678,0,-3.3303,-3.332,-3.3366,-3.3412,-3.3451,-3.3429,-3.3463,-3.3497,-3.3549,-3.3577,-3.3616,-3.3676,-3.3723,-3.3736,-3.3781,-3.3815,-3.3806,-3.3827,-3.3825,-3.3828,-3.3708,-3.369,-3.3833,-3.3833,-3.3833,-3.3833,-3.3833,-3.3833,-3.3385,-3.3459,-3.3462,-3.3547,-3.3564,-3.3622,-3.3644,-3.3671,-3.3693,-3.3762,-3.3802,-3.381,-3.3832,-3.3879,-3.3921,-3.3923,-3.3941,-3.3966,-3.3965,-3.3852,-3.3837,-3.3822,-3.3805,-3.397,-3.397,-3.4082,-3.4083,-3.4084]}]]